FW9211 Weather Reports


time (UTC)temp
C
wind
direction
speed
KPH
gust
KPH
rain 1hr
cm
rain 24hr
cm
rain mn
cm
humidity
%
barometer
mb
20260509053129 25 254 0.0 4.8 0.00 0.00 0.00 34 1021.7
20260509051552 25 0 1.6 8.0 0.00 0.00 0.00 34 1021.6
20260509050053 25 226 0.0 4.8 0.00 0.00 0.00 37 1021.7
20260509044551 23 0 0.0 4.8 0.00 0.00 0.00 36 1021.6
20260509043103 23 184 0.0 8.0 0.00 0.00 0.00 39 1021.8
20260509041603 23 0 0.0 8.0 0.00 0.00 0.00 41 1021.9
20260509040104 22 0 0.0 6.4 0.00 0.00 0.00 40 1021.8
20260509034605 21 131 0.0 8.0 0.00 0.00 0.00 42 1021.9
20260509033053 21 164 1.6 8.0 0.00 0.00 0.00 44 1022.1
20260509031603 21 234 3.2 6.4 0.00 0.00 0.00 46 1022.1
20260509030055 21 0 0.0 9.7 0.00 0.00 0.00 44 1022.1
20260509024550 20 79 0.0 9.7 0.00 0.00 0.00 45 1022.4
20260509023054 20 0 1.6 11.3 0.00 0.00 0.00 48 1022.7
20260509021555 20 95 3.2 12.9 0.00 0.00 0.00 49 1022.9
20260509020054 19 120 3.2 12.9 0.00 0.00 0.00 51 1023.0
20260509014559 18 131 4.8 19.3 0.00 0.00 0.00 50 1023.1
20260509013057 18 103 6.4 17.7 0.00 0.00 0.00 50 1023.5
20260509011555 18 127 4.8 16.1 0.00 0.00 0.00 52 1023.7
20260509010058 17 127 8.0 17.7 0.00 0.00 0.00 55 1023.8
20260509004552 16 120 8.0 22.5 0.00 0.00 0.00 56 1023.8
20260509003056 16 126 8.0 17.7 0.00 0.00 0.00 59 1023.9
20260509001552 15 113 6.4 17.7 0.00 0.00 0.00 61 1024.0
20260509000052 15 121 8.0 20.9 0.00 0.00 0.00 65 1024.1
20260508234555 14 113 8.0 20.9 0.00 0.00 0.00 67 1024.1
20260508233106 13 93 8.0 19.3 0.00 0.00 0.00 69 1024.1
20260508231554 12 130 4.8 16.1 0.00 0.00 0.00 74 1024.1
20260508230104 11 123 6.4 19.3 0.00 0.00 0.00 78 1024.0
20260508224555 10 116 8.0 16.1 0.00 0.00 0.00 80 1024.0
20260508223055 9 116 6.4 12.9 0.00 0.00 0.00 82 1023.8
20260508221552 8 138 4.8 12.9 0.00 0.00 0.00 83 1023.8
20260508220057 8 98 1.6 9.7 0.00 0.00 0.00 85 1023.7
20260508214605 7 127 3.2 11.3 0.00 0.00 0.00 86 1023.6
20260508213052 7 81 4.8 11.3 0.00 0.00 0.00 87 1023.5
20260508211555 7 132 1.6 6.4 0.00 0.00 0.00 88 1023.5
20260508210056 6 96 0.0 9.7 0.00 0.00 0.00 88 1023.4
20260508204555 6 0 1.6 6.4 0.00 0.00 0.00 89 1023.2
20260508203052 6 108 0.0 4.8 0.00 0.00 0.00 88 1023.0
20260508201552 6 120 0.0 8.0 0.00 0.00 0.00 87 1022.8
20260508200058 6 110 1.6 8.0 0.00 0.00 0.00 88 1022.9
20260508194552 6 78 1.6 11.3 0.00 0.00 0.00 88 1022.7
20260508193058 6 118 0.0 4.8 0.00 0.00 0.00 87 1022.5
20260508191600 7 0 0.0 4.8 0.00 0.00 0.00 87 1022.4
20260508190054 7 94 0.0 6.4 0.00 0.00 0.00 86 1022.1
20260508184555 7 0 1.6 6.4 0.00 0.00 0.00 85 1022.1
20260508183053 7 0 0.0 4.8 0.00 0.00 0.00 85 1022.1
20260508181552 7 0 0.0 1.6 0.00 0.00 0.00 85 1022.1
20260508180048 7 0 0.0 6.4 0.00 0.00 0.00 85 1022.1
20260508174553 7 0 0.0 1.6 0.00 0.00 0.00 85 1022.0
20260508173052 7 0 0.0 1.6 0.00 0.00 0.00 85 1022.0
20260508171555 7 0 0.0 1.6 0.00 0.00 0.00 84 1022.0
20260508170058 7 0 0.0 4.8 0.00 0.00 0.00 85 1022.2
20260508164555 7 0 0.0 0.0 0.00 0.00 0.00 88 1022.2
20260508163054 6 0 0.0 0.0 0.00 0.00 0.00 89 1022.3
20260508161552 6 0 0.0 0.0 0.00 0.00 0.00 89 1022.3
20260508160058 6 0 0.0 0.0 0.00 0.00 0.00 89 1022.4
20260508154552 6 0 0.0 0.0 0.00 0.00 0.00 88 1022.4
20260508153055 6 0 0.0 0.0 0.00 0.00 0.00 88 1022.4
20260508151557 7 0 0.0 0.0 0.00 0.00 0.00 86 1022.6
20260508150054 7 0 0.0 0.0 0.00 0.00 0.00 85 1022.7
20260508144555 8 0 0.0 0.0 0.00 0.00 0.00 83 1022.6
20260508143112 8 0 0.0 0.0 0.00 0.00 0.00 83 1022.7
20260508141557 7 0 0.0 0.0 0.00 0.00 0.00 84 1022.8
20260508140059 7 0 0.0 0.0 0.00 0.00 0.00 83 1022.9
20260508134555 8 0 0.0 0.0 0.00 0.00 0.00 83 1022.9
20260508133100 8 0 0.0 0.0 0.00 0.00 0.00 81 1022.9
20260508131556 8 0 0.0 0.0 0.00 0.00 0.00 80 1023.0
20260508130108 9 0 0.0 0.0 0.00 0.00 0.00 77 1023.1
20260508124555 10 0 0.0 0.0 0.00 0.00 0.00 73 1023.2
20260508123103 10 0 0.0 0.0 0.00 0.00 0.00 74 1023.5
20260508121607 10 0 0.0 0.0 0.00 0.00 0.00 77 1023.4
20260508120057 10 0 0.0 0.0 0.00 0.00 0.00 76 1023.5
20260508114555 11 0 0.0 0.0 0.00 0.00 0.00 71 1023.6
20260508113053 12 0 0.0 6.4 0.00 0.00 0.00 68 1023.6
20260508111554 12 147 4.8 16.1 0.00 0.00 0.00 67 1023.5
20260508110057 12 114 6.4 12.9 0.00 0.00 0.00 68 1023.4
20260508104617 12 127 1.6 9.7 0.00 0.00 0.00 68 1023.3
20260508103051 11 0 0.0 1.6 0.00 0.00 0.00 70 1023.0
20260508101554 10 0 0.0 0.0 0.00 0.00 0.00 73 1022.9
20260508100052 11 0 0.0 0.0 0.00 0.00 0.00 68 1022.5
20260508094550 12 0 0.0 0.0 0.00 0.00 0.00 65 1022.6
20260508093055 13 0 0.0 0.0 0.00 0.00 0.00 64 1022.4
20260508091553 13 0 0.0 6.4 0.00 0.00 0.00 62 1022.2
20260508090107 13 0 0.0 4.8 0.00 0.00 0.00 62 1021.9
20260508084553 13 171 0.0 3.2 0.00 0.00 0.00 61 1021.5
20260508083109 13 0 0.0 1.6 0.00 0.00 0.00 59 1021.4
20260508081559 14 0 0.0 9.7 0.00 0.00 0.00 58 1021.2
20260508080057 14 133 0.0 1.6 0.00 0.00 0.00 57 1021.0
20260508074551 15 0 0.0 3.2 0.00 0.00 0.00 55 1020.8
20260508073051 15 202 0.0 6.4 0.00 0.00 0.00 53 1020.6
20260508071600 16 187 0.0 3.2 0.00 0.00 0.00 51 1020.5
20260508070139 17 172 0.0 3.2 0.00 0.00 0.00 48 1020.5
20260508064606 18 0 0.0 3.2 0.00 0.00 0.00 46 1020.4
20260508063051 18 267 1.6 11.3 0.00 0.00 0.00 45 1020.3
20260508061555 18 0 1.6 8.0 0.00 0.00 0.00 45 1020.4
20260508060058 22 0 0.0 6.4 0.00 0.00 0.00 38 1020.3
20260508054554 22 165 0.0 8.0 0.00 0.00 0.00 36 1020.3